Location: Poughquag
(41.6090°N, 73.6820°W)
Time: 12:51:53
(UTC-04:00)

Tiros 1 - Pass Details

Date: 07 June 2020
Orbit: 630 x 664 km, 48.4° (Epoch: 06 July)

Event Time Altitude Azimuth Distance (km) Brightness Sun altitude
Rises 11:32:40 0° 255° (WSW) 2,983 10.4 64.7°
Reaches altitude 10° 11:35:03 10° 259° (W) 2,069 9.7 65.0°
Maximum altitude 11:39:46 57° 339° (NNW) 768 8.2 65.7°
Drops below altitude 10° 11:44:26 10° 59° (ENE) 2,055 9.9 66.3°
Sets 11:46:49 0° 63° (ENE) 2,961 10.6 66.6°
